Probability
0 0 0 0 0 0 0 0 0 0 0 0 0 0 0 0 0 0 0 0 0 0 0 0 0 0 0 0 0 0 0 0 0 0 0 0 0 0 0 0 0 0 0
0 0 0 0 0 0 0 0 0 0 0 0 0 0 0 0 0 0 0 0 0 0 0 0 0 0 0 0 0 0 0 0 0 0 0 0 0 0 0 0 0 0 0
0 0 0 0 0 0 0 0 0 0 0 0 0 0 0 0 0 0 0 0 0 0 0 0 0 0 0 0 0 0 0 0 0 0 0 0 0 0 0 0 0 0 0
0 0 0 0 0 0 0 0 0 0 0 0 0 0 0 0 0 0 0 0 0 0 0 0 0 0 0 0 0 0 0 0 0 0 0 0 0 0 0 0 0 0 0
0 0 0 0 0 0 0 0 0 0 0 0 0 0 0 0 0 0 0 0 0 0 0 0 0 0 0 0 0 0 0 0 0 0 0 0 0 0 0 0 0 0 0
0 0 0 0 0 0 0 0 0 0 0 0 0 0 0 0 0 0 0 0 0 0 0 0 0 0 0 0 0 0 0 0 0 0 0 0 0 0 0 0 0 0 0
0 0 0 0 0 0 0 0 0 0 0 0 0 0 0 0 0 0 0 0 0 0 0 0 0 0 0 0 0 0 0 0 0 0 0 0 0 0 0 0 0 0 0
0 0 0 0 0 0 0 0 0 0 0 0 0 0 0 0 0 0 0 0 0 0 0 0 0 0 0 0 0 0 0 0 0 0 0 0 0 0 0 0 0 0 0
0 0 0 0 0 0 0 0 0 0 0 0 0 0 0 0 0 0 0 0 0 0 0 0 0 0 0 0 0 0 0 0 0 0 0 0 0 0 0 0 0 0 0
0 0 0 0 0 0 0 0 0 0 0 0 0 0 0 0 0 0 0 0 0 0 0 0 0 0 0 0 0 0 0 0 0 0 0 0 0 0 0 0 0 0 0
0 0 0 0 0 0 0 0 0 0 0 0 0 0 0 0 0 0 0 0 0 0 0 0 0 0 0 0 0 0 0 0 0 0 0 0 0 0 0 0 0 0 0
0 0 0 0 0 0 0 0 0 0 0 0 0 0 0 0 0 0 0 0 0 0 0 0 0 0 0 0 0 0 0 0 0 0 0 0 0 0 0 0 0 0 0
0 0 0 0 0 0 0 0 0 0 0 0 0 0 0 0 0 0 0 0 0 0 0 0 0 0 0 0 0 0 0 0 0 0 0 0 0 0 0 0 0 0 0
0 0 0 0 0 0 0 0 0 0 0 0 0 0 0 0 0 0 0 0 0 0 0 0 0 0 0 0 0 0 0 0 0 0 0 0 0 0 0 0 0 0 0
0 0 0 0 0 0 0 0 0 0 0 0 0 0 0 0 0 0 0 0 0 0 0 0 0 0 0 0 0 0 0 0 0 0 0 0 0 0 0 0 0 0 0
0 0 0 0 0 0 0 0 0 0 0 0 0 0 0 0 0 0 0 0 0 0 0 0 0 0 0 0 0 0 0 0 0 0 0 0 0 0 0 0 0 0 0
0 0 0 0 0 0 0 0 0 0 0 0 0 0 0 0 0 0 0 0 0 0 0 0 0 0 0 0 0 0 0 0 0 0 0 0 0 0 0 0 0 0 0
0 0 0 0 0 0 0 0 0 0 0 0 0 0 0 0 0 0 0 0 0 0 0 0 0 0 0 0 0 0 0 0 0 0 0 0 0 0 0 0 0 0 0
0 0 0 0 0 0 0 0 0 0 0 0 0 0 0 0 0 0 0 0 0 0 0 0 0 0 0 0 0 0 0 0 0 0 0 0 0 0 0 0 0 0 0
0 0 0 0 0 0 0 0 0 0 0 0 0 0 0 0 0 0 0 0 0 0 0 0 0 0 0 0 0 0 0 0 0 0 0 0 0 0 0 0 0 0 0
0 0 0 0 0 0 0 0 0 0 0 0 0 0 0 0 0 0 0 0 0 0 0 0 0 0 0 0 0 0 0 0 0 0 0 0 0 0 0 0 0 0 0
0 0 0 0 0 0 0 0 0 0 0 0 0 0 0 0 0 0 0 0 0 0 0 0 0 0 0 0 0 0 0 0 0 0 0 0 0 0 0 0 0 0 0
0 0 0 0 0 0 0 0 0 0 0 0 0 0 0 0 0 0 0 0 0 0 0 0 0 0 0 0 0 0 0 0 0 0 0 0 0 0 0 0 0 0 0
0 0 0 0 0 0 0 0 0 0 0 0 0 0 0 0 0 0 0 0 0 0 0 0 0 0 0 0 0 0 0 0 0 0 0 0 0 0 0 0 0 0 0
0 0 0 0 0 0 0 0 0 0 0 0 0 0 0 0 0 0 0 0 0 0 0 0 0 0 0 0 0 0 0 0 0 0 0 0 0 0 0 0 0 0 0
0 0 0 0 0 0 0 0 0 0 0 0 0 0 0 0 0 0 0 0 0 0 0 0 0 0 0 0 0 0 0 0 0 0 0 0 0 0 0 0 0 0 0
Wind_Speed
6 5 4 3 3 3 3 4 4 5 5 5 5 6 7 7 7 7 7 18 21 22 23 23 22 22 21 21 20 20 18 17 14 12 11 11 10 10 10 11 11 12 12
6 6 5 4 4 4 4 4 5 5 5 5 6 6 7 7 8 9 7 11 21 23 24 24 24 24 23 22 22 21 21 20 20 18 16 14 13 12 11 11 11 12 12
8 7 6 5 4 4 5 5 5 5 5 5 6 7 7 8 9 10 9 8 9 18 24 24 24 24 24 23 23 22 22 22 22 22 22 20 18 16 15 13 13 13 12
9 7 6 5 4 4 5 5 4 5 5 5 5 5 6 7 9 9 9 9 7 8 14 24 24 24 24 24 23 23 23 23 23 23 23 23 22 22 20 18 17 15 14
9 8 7 5 5 6 5 5 5 4 5 5 5 6 6 6 7 9 10 9 8 8 8 15 21 22 23 24 24 24 23 23 23 24 24 24 24 24 23 23 21 20 18
9 9 7 7 6 6 5 5 7 6 4 4 7 7 6 5 6 7 7 7 8 10 9 9 9 12 21 23 23 24 23 24 24 24 24 25 25 25 25 25 24 23 22
8 9 8 7 6 6 5 5 4 7 7 3 4 4 4 5 5 5 5 6 9 9 9 9 7 7 8 19 22 23 24 24 24 24 25 25 25 25 26 26 26 25 24
8 9 9 7 6 7 7 6 4 4 5 5 3 3 2 3 4 4 4 6 7 6 8 9 8 8 7 6 15 23 25 25 26 26 26 26 26 26 26 26 26 26 26
8 8 9 8 7 7 7 6 5 6 5 5 5 4 4 0 3 3 4 5 6 5 6 6 8 8 9 8 8 17 25 25 26 26 27 27 27 27 27 27 27 26 26
8 8 9 9 8 7 7 6 5 4 5 3 4 5 4 3 2 3 4 4 6 5 6 6 6 6 7 7 11 20 24 25 25 26 27 27 27 27 27 27 27 27 27
7 7 8 8 8 7 7 7 7 7 4 4 3 3 4 4 4 2 3 5 5 4 5 5 3 4 6 8 8 16 24 24 25 26 27 27 27 28 28 28 28 28 27
5 7 8 7 7 7 7 7 7 8 6 6 5 3 3 3 2 2 1 2 4 4 5 3 3 4 4 7 12 22 22 24 26 26 26 27 27 28 28 28 28 28 28
5 6 7 7 6 7 7 7 7 7 6 6 5 4 3 3 1 1 1 1 3 3 4 3 2 3 5 6 9 22 20 25 26 27 27 27 27 28 28 28 28 28 28
7 7 7 7 7 7 7 7 6 6 5 5 5 4 3 3 2 1 1 0 2 3 3 4 2 2 5 6 12 21 13 24 26 26 27 27 27 28 28 28 28 28 28
8 9 8 8 7 7 7 7 6 5 5 4 4 4 3 2 2 2 1 1 1 3 4 3 2 2 5 5 14 10 11 21 26 26 26 27 27 27 27 28 28 28 28
9 10 9 8 8 7 7 6 6 5 5 4 3 3 2 1 1 1 1 0 1 2 5 4 3 4 5 8 15 11 12 23 22 24 26 27 27 27 27 27 28 28 27
11 11 10 9 9 8 7 6 5 5 5 4 3 3 2 2 1 1 1 1 1 2 5 6 3 5 6 8 10 8 9 10 11 23 26 26 27 27 27 27 27 27 27
10 10 10 9 9 8 7 7 7 6 6 5 4 3 3 2 2 2 2 2 2 3 4 9 8 6 7 9 10 11 10 11 10 20 25 27 27 27 27 28 28 28 28
10 9 9 10 9 8 7 7 6 6 5 5 5 5 4 4 4 3 3 3 3 4 4 7 10 7 7 8 11 11 10 8 11 15 22 24 25 27 28 28 29 28 28
11 11 9 9 9 8 8 7 7 6 5 5 5 5 5 5 5 4 4 4 4 4 5 7 9 9 9 8 8 10 12 8 10 12 17 19 22 25 27 28 28 28 27
11 10 9 8 7 7 8 8 8 7 7 6 5 5 5 5 7 6 5 4 4 4 5 6 8 9 9 9 9 10 13 13 11 9 10 11 12 12 13 19 23 25 27
10 9 10 10 9 8 13 16 11 8 7 7 6 5 5 6 8 11 12 11 9 6 5 5 7 9 12 10 10 11 12 14 12 6 10 14 12 12 11 9 21 28 28
10 10 10 10 10 12 17 17 17 9 8 7 7 5 5 5 6 6 9 12 11 13 13 9 9 10 11 11 13 14 13 14 15 13 13 15 12 13 11 13 26 29 29
10 10 11 11 9 12 18 18 17 10 7 7 7 7 7 6 7 7 7 8 8 9 11 9 9 10 10 10 11 12 13 12 14 11 11 13 12 12 12 12 22 26 25
10 10 8 10 11 12 18 19 17 6 7 8 8 8 8 8 12 14 9 8 9 9 12 15 15 15 18 19 15 8 7 8 11 11 8 8 9 13 13 12 13 21 24
10 9 9 9 11 10 15 19 18 6 7 7 6 8 10 11 14 15 9 8 10 9 6 6 8 10 10 11 14 8 6 7 9 8 5 7 10 11 10 7 9 12 15
Wind_Direction
125 112 97 82 70 66 73 73 64 60 52 47 50 55 52 52 52 50 42 46 46 42 38 35 31 28 25 21 17 13 9 8 4 360 353 346 343 338 336 335 335 333 331
118 111 98 85 73 69 70 72 68 65 56 53 51 51 57 60 60 58 52 46 47 44 40 36 32 28 25 22 19 17 15 13 10 6 359 351 342 336 329 324 322 322 322
111 107 100 87 76 74 74 71 64 61 58 56 54 54 64 69 71 65 58 51 41 40 38 35 30 27 24 22 20 18 16 15 12 10 5 360 353 344 336 328 321 314 311
104 102 97 88 80 75 73 71 59 63 54 54 59 61 68 74 73 67 60 52 45 38 30 32 28 24 22 21 19 18 16 15 13 11 8 3 359 354 347 339 330 321 311
98 100 95 88 82 76 66 70 55 62 59 58 71 69 65 68 68 67 60 50 43 37 28 25 24 21 20 19 17 16 14 13 13 10 7 3 359 354 349 345 339 331 322
100 100 94 84 81 82 71 68 72 60 60 66 84 74 60 62 65 61 56 47 38 31 23 21 17 13 16 15 12 11 10 9 7 6 3 360 356 353 349 344 339 335 330
97 98 99 87 82 84 79 78 82 67 48 30 80 69 46 50 66 56 51 46 33 22 15 13 12 11 5 11 8 7 5 2 1 359 356 354 351 349 346 343 340 335 330
96 100 100 96 89 88 73 60 70 83 53 28 81 101 60 11 19 36 40 42 27 14 9 5 7 9 7 7 4 8 4 358 355 352 350 347 345 342 340 338 336 333 330
89 98 98 97 89 89 86 71 69 89 94 45 44 99 112 96 323 342 23 33 18 6 357 351 7 8 14 13 2 2 0 354 351 347 344 341 339 336 334 332 330 329 326
93 96 98 98 94 90 87 78 69 77 98 85 52 44 74 111 82 335 334 359 1 354 347 351 356 7 17 14 3 359 355 350 347 342 339 335 333 330 329 327 326 324 323
91 96 99 100 97 94 93 89 80 74 75 89 86 75 63 56 63 94 317 326 334 325 332 336 350 9 19 14 358 348 349 346 342 338 335 331 329 326 325 323 321 320 319
103 100 101 101 102 102 99 96 91 86 84 84 80 77 90 89 72 81 274 299 310 306 316 323 358 14 15 9 353 345 345 341 337 333 330 328 326 324 322 320 318 317 316
132 127 119 114 110 109 106 102 97 91 90 92 91 85 82 84 98 111 169 287 296 295 307 311 343 18 10 1 342 341 340 336 332 329 327 326 324 322 320 318 317 316 314
142 139 130 122 120 117 113 107 102 100 97 98 97 97 93 82 78 88 115 271 306 297 282 283 313 27 8 347 331 340 333 330 327 327 326 324 322 320 318 316 315 314 313
143 139 134 129 126 122 119 115 110 110 110 105 108 105 103 99 92 86 87 129 243 297 291 278 296 340 353 331 327 330 325 320 325 325 323 322 319 318 317 316 315 314 313
145 145 141 137 133 128 125 119 119 124 121 120 122 120 118 120 110 102 102 126 190 226 277 277 267 309 323 322 321 322 313 320 320 320 320 318 317 316 316 315 314 313 312
153 154 151 147 143 139 137 133 137 141 140 141 143 148 159 160 158 171 186 207 222 220 270 286 276 309 307 312 315 308 307 305 310 316 314 314 316 315 314 313 313 313 313
159 157 154 151 149 148 149 152 155 159 162 168 174 177 192 189 197 205 206 220 232 233 255 290 300 311 309 311 308 309 310 310 305 308 311 313 312 311 312 311 311 311 310
160 159 159 159 159 159 160 166 166 170 177 182 186 194 202 201 217 213 216 226 232 248 243 274 293 302 303 308 311 308 303 296 301 306 310 309 308 309 309 309 308 308 309
166 167 169 166 164 164 168 172 175 178 185 194 199 205 208 210 219 220 230 231 235 246 254 270 285 298 303 306 306 314 314 310 307 306 303 305 306 308 306 305 305 305 304
172 169 166 166 166 171 179 180 183 186 192 200 208 215 219 220 231 234 237 231 232 244 259 273 287 297 302 314 315 314 310 311 303 294 300 305 304 301 300 300 303 301 302
172 170 175 175 180 190 197 197 190 193 198 204 213 217 224 226 238 252 258 260 255 251 254 265 283 290 299 305 308 308 309 311 309 307 311 307 304 300 300 294 300 305 307
174 178 182 183 192 202 203 204 202 193 201 207 210 214 228 228 225 238 257 267 270 271 269 271 278 283 294 303 306 307 307 306 302 308 309 301 303 301 301 303 308 306 306
182 186 189 193 197 209 209 209 208 200 202 210 212 214 226 232 228 234 240 247 249 253 260 268 270 279 287 295 298 302 305 304 298 296 301 297 302 304 309 305 303 302 307
190 193 191 193 201 213 213 213 209 197 211 218 216 219 226 232 242 247 246 246 255 256 266 271 276 286 295 303 307 307 307 307 304 306 303 288 305 314 305 295 299 308 312
195 192 198 200 205 212 215 215 213 200 213 221 220 226 229 232 242 246 242 241 253 259 256 267 281 292 298 299 302 299 294 295 300 303 311 314 311 320 307 292 306 309 305